CW0762 Weather Reports


Display with metric or nautical units.
time (UTC)temp
F
wind
direction
speed
MPH
gust
MPH
rain 1hr
in
rain 24hr
in
rain mn
in
humidity
%
barometer
mb
20200225194538 59 287 4.0 12.0 0.00 0.00 0.00 48 1016.8
20200225193031 59 325 3.0 8.0 0.00 0.00 0.00 50 1016.9
20200225191532 57 286 3.0 9.0 0.00 0.00 0.00 55 1017.1
20200225190032 57 302 3.0 11.0 0.00 0.00 0.00 55 1017.3
20200225184555 57 284 2.0 7.0 0.00 0.00 0.00 55 1017.4
20200225183126 58 292 0.0 6.0 0.00 0.00 0.00 57 1017.5
20200225181606 57 299 1.0 9.0 0.00 0.00 0.00 60 1017.5
20200225180056 56 298 2.0 8.0 0.00 0.00 0.00 62 1017.5
20200225174545 56 275 2.0 8.0 0.00 0.00 0.00 62 1017.7
20200225173018 55 288 2.0 7.0 0.00 0.00 0.00 65 1017.8
20200225171513 54 281 3.0 8.0 0.00 0.00 0.00 65 1018.1
20200225170023 52 275 2.0 10.0 0.00 0.00 0.00 67 1018.1
20200225164511 52 263 4.0 9.0 0.00 0.00 0.00 69 1018.1
20200225163035 51 289 3.0 9.0 0.00 0.00 0.00 71 1018.1
20200225161526 51 288 3.0 9.0 0.00 0.00 0.00 72 1018.1
20200225160019 51 283 1.0 6.0 0.00 0.00 0.00 74 1018.0
20200225154652 50 298 2.0 7.0 0.00 0.00 0.00 76 1017.8
20200225153154 49 302 1.0 3.0 0.00 0.00 0.00 78 1017.6
20200225151629 48 302 1.0 5.0 0.00 0.00 0.00 80 1017.5
20200225150201 46 302 0.0 5.0 0.00 0.00 0.00 85 1017.5
20200225144646 44 303 0.0 2.0 0.00 0.00 0.00 87 1017.4
20200225143238 44 304 1.0 4.0 0.00 0.00 0.00 88 1017.2
20200225141620 43 304 0.0 3.0 0.00 0.00 0.00 89 1016.8
20200225140131 42 304 1.0 6.0 0.00 0.00 0.00 90 1016.7
20200225134630 42 317 0.0 3.0 0.00 0.00 0.00 90 1016.5
20200225133207 41 318 0.0 3.0 0.00 0.00 0.00 89 1016.4
20200225131606 41 318 0.0 2.0 0.00 0.00 0.00 89 1016.2
20200225130059 41 318 0.0 3.0 0.00 0.00 0.00 88 1016.1
20200225124603 41 318 0.0 2.0 0.00 0.00 0.00 88 1016.1
20200225123111 41 318 0.0 2.0 0.00 0.00 0.00 88 1016.0
20200225121553 41 318 0.0 3.0 0.00 0.00 0.00 88 1016.0
20200225120137 42 318 0.0 4.0 0.00 0.00 0.00 88 1015.9
20200225114620 42 318 0.0 4.0 0.00 0.00 0.00 88 1015.7
20200225113032 42 334 0.0 3.0 0.00 0.00 0.00 87 1015.5
20200225111611 42 349 0.0 2.0 0.00 0.00 0.00 87 1015.2
20200225110050 42 350 0.0 3.0 0.00 0.00 0.00 86 1015.1
20200225104555 42 350 0.0 2.0 0.00 0.00 0.00 86 1015.0
20200225103055 42 350 0.0 1.0 0.00 0.00 0.00 86 1014.8
20200225101538 43 350 0.0 1.0 0.00 0.00 0.00 85 1014.6
20200225100101 43 350 0.0 1.0 0.00 0.00 0.00 85 1014.2
20200225094612 43 350 0.0 2.0 0.00 0.00 0.00 84 1014.0
20200225093038 44 350 0.0 1.0 0.00 0.00 0.00 84 1013.7
20200225090040 44 350 0.0 1.0 0.00 0.00 0.00 83 1013.5
20200225084512 44 350 0.0 1.0 0.00 0.00 0.00 82 1013.6
20200225083010 45 350 0.0 1.0 0.00 0.00 0.00 82 1013.6
20200225081510 45 350 0.0 2.0 0.00 0.00 0.00 82 1013.5
20200225080013 46 350 0.0 3.0 0.00 0.00 0.00 81 1013.4
20200225074707 46 350 0.0 0.0 0.00 0.00 0.00 80 1013.2
20200225073119 46 350 0.0 2.0 0.00 0.00 0.00 79 1013.3
20200225071717 47 350 0.0 2.0 0.00 0.00 0.00 79 1013.1
20200225070132 47 350 1.0 5.0 0.00 0.00 0.00 78 1012.9
20200225064605 47 350 0.0 1.0 0.00 0.00 0.00 78 1012.7
20200225063208 48 350 0.0 3.0 0.00 0.00 0.00 77 1012.5
20200225061643 48 349 0.0 6.0 0.00 0.00 0.00 77 1012.6
20200225060123 48 340 2.0 6.0 0.00 0.00 0.00 77 1012.5
20200225054607 48 360 2.0 6.0 0.00 0.01 0.00 76 1012.2
20200225053207 48 348 0.0 7.0 0.00 0.01 0.00 76 1012.2
20200225051607 49 346 2.0 6.0 0.00 0.01 0.00 76 1012.1
20200225050114 49 348 3.0 8.0 0.00 0.01 0.00 75 1012.2
20200225044639 50 339 3.0 7.0 0.00 0.01 0.00 74 1012.2
20200225043125 50 338 1.0 4.0 0.00 0.01 0.00 74 1012.1
20200225041553 50 337 1.0 4.0 0.00 0.01 0.00 73 1011.9
20200225040105 51 336 1.0 4.0 0.00 0.01 0.00 73 1012.2
20200225034558 51 333 0.0 3.0 0.00 0.01 0.00 72 1012.1
20200225033033 52 333 1.0 6.0 0.00 0.01 0.00 70 1012.3
20200225031554 52 323 2.0 4.0 0.00 0.01 0.00 69 1012.3
20200225030048 53 323 1.0 5.0 0.00 0.01 0.00 69 1012.4
20200225024603 53 315 2.0 5.0 0.00 0.01 0.00 68 1012.2
20200225023034 53 300 0.0 3.0 0.00 0.01 0.00 67 1012.2
20200225021607 54 300 0.0 3.0 0.00 0.01 0.00 66 1012.0
20200225020026 55 299 0.0 1.0 0.00 0.01 0.00 64 1011.9
20200225014531 56 299 0.0 0.0 0.00 0.01 0.00 61 1011.6
20200225013040 56 299 0.0 0.0 0.00 0.01 0.00 60 1011.1
20200225011538 57 299 0.0 1.0 0.00 0.01 0.00 60 1010.8
20200225010021 58 299 0.0 3.0 0.00 0.01 0.00 59 1010.6
20200225004526 59 299 0.0 0.0 0.00 0.01 0.00 57 1010.5
20200225003038 59 299 0.0 3.0 0.00 0.01 0.00 56 1010.4
20200225001513 60 299 2.0 9.0 0.00 0.01 0.00 54 1010.0
20200225000019 61 302 2.0 5.0 0.00 0.01 0.00 52 1009.8
20200224234521 62 280 3.0 9.0 0.00 0.01 0.00 51 1009.7
20200224233012 63 301 3.0 8.0 0.00 0.01 0.00 51 1009.5
20200224231513 63 304 1.0 9.0 0.00 0.01 0.00 50 1009.5
20200224230015 64 293 4.0 8.0 0.00 0.01 0.00 49 1009.3
20200224224514 64 268 3.0 10.0 0.00 0.01 0.00 48 1009.1
20200224223031 64 302 5.0 11.0 0.00 0.01 0.00 48 1008.9
20200224221529 64 297 4.0 10.0 0.00 0.01 0.00 48 1009.0
20200224220026 64 286 4.0 8.0 0.00 0.01 0.00 48 1009.0
20200224214532 64 281 5.0 10.0 0.00 0.01 0.00 48 1009.1
20200224211506 65 304 4.0 12.0 0.00 0.01 0.00 47 1008.9
20200224210006 64 292 4.0 10.0 0.00 0.01 0.00 49 1008.9
20200224204508 64 265 6.0 11.0 0.00 0.01 0.00 49 1009.0
20200224203003 64 300 5.0 15.0 0.00 0.01 0.00 49 1009.0
20200224201502 64 304 4.0 13.0 0.00 0.01 0.00 49 1008.8
20200224200311 64 291 4.0 13.0 0.00 0.01 0.00 49 1008.9
20200224194802 63 86 2.0 11.0 0.00 0.01 0.00 50 1009.0